Location: Archemont
(49.1579°N, 1.7598°E)
Time: 10:28:51
(UTC+00:00)

deb Explorer IX - Pass Details

Date: 14 April 2024
Orbit: 513 x 891 km, 38.7° (Epoch: 23 May)

Event Time Altitude Azimuth Distance (km) Brightness Sun altitude
Rises 16:18:08 0° 256° (WSW) 3,491 ? 22.8°
Reaches altitude 10° 16:21:06 10° 246° (WSW) 2,517 ? 22.3°
Maximum altitude 16:26:06 28° 190° (S) 1,523 ? 21.5°
Drops below altitude 10° 16:30:45 10° 133° (SE) 2,331 ? 20.8°
Sets 16:33:24 0° 121° (ESE) 3,189 ? 20.4°
